Location: Newark
(12.4436°N, 0.6167°W)
Time: 13:00:08
(UTC+00:00)

Transit 2A - Pass Details

Date: 14 December 2019
Orbit: 601 x 957 km, 66.7° (Epoch: 17 January)

Event Time Altitude Azimuth Distance (km) Brightness Sun altitude
Rises 06:06:08 0° 239° (WSW) 3,260 8.9 -2.8°
Reaches altitude 10° 06:10:01 10° 266° (W) 2,242 7.9 -1.9°
Maximum altitude 06:12:15 13° 293° (WNW) 2,001 7.5 -1.4°
Drops below altitude 10° 06:14:25 10° 319° (NW) 2,143 7.8 -0.9°
Sets 06:17:58 0° 348° (NNW) 2,982 8.7 -0.1°
